Grand Rapids, MI

4:51 AM EST on February 25, 2017 (GMT -0500)
Gerald R. Ford International

Weather History for KGRR - April, 2013

Change the Weather History Date:

Monday, April 22, 2013

  Actual Average Record
Temperature  
Mean Temperature 49 °F 51 °F  
Max Temperature 65 °F 61 °F 86 °F (1980)
Min Temperature 33 °F 40 °F 24 °F (1986)
Degree Days  
Heating Degree Days 16 15  
Month to date heating degree days 515 413  
Since 1 July heating degree days 6028 6100  
Cooling Degree Days 0 0  
Month to date cooling degree days 0 0  
Year to date cooling degree days 0 1  
Moisture  
Dew Point 28 °F    
Average Humidity 50    
Maximum Humidity 75    
Minimum Humidity 24    
Precipitation  
Precipitation 0.00 in 0.11 in 1.72 in (1999)
Month to date precipitation 9.84 2.45  
Year to date precipitation 17.84 8.70  
Snow  
Snow 0.00 in 0.00 in 0.10 in (2015)
Month to date snowfall 0.5 1.7  
Since 1 July snowfall 65.8 74.8  
Snow Depth 0.00 in    
Sea Level Pressure  
Sea Level Pressure 30.29 in    
Wind  
Wind Speed 7 mph (SE)    
Max Wind Speed 14 mph    
Max Gust Speed 21 mph    
Visibility 10 miles    
Events      
T = Trace of Precipitation, MM = Missing Value Source: NWS Daily Summary

Daily Weather History Graph

Daily Weather History Graph

Search for Another Location

Airport or City:

Trip Planner

Search our weather history database for the weather conditions in past years. The results will help you decide how hot, cold, wet, or windy it might be!

Date:

Astronomy

Apr. 22, 2013 Rise Set
Actual Time 6:48 AM EDT 8:32 PM EDT
Civil Twilight 6:18 AM EDT 9:03 PM EDT
Nautical Twilight 5:42 AM EDT 9:39 PM EDT
Astronomical Twilight 5:03 AM EDT 10:19 PM EDT
Moon 5:16 PM EDT (4/22) 4:48 AM EDT (4/22)
Length of Visible Light 14h 44m
Length of Day
13h 43m
Waxing Gibbous, 87% of the Moon is Illuminated
Apr 22
Waxing Gibbous
Apr 25
Full
May 2
Last Quarter
May 9
New
May 18
First Quarter

Hourly Weather History & Observations

Time (EDT) Temp. Windchill Dew Point Humidity Pressure Visibility Wind Dir Wind Speed Gust Speed Precip Events Conditions
12:53 AM 39.9 °F 32.9 °F 26.1 °F 58% 30.41 in 10.0 mi SE 11.5 mph - N/A   Clear
1:53 AM 37.9 °F 32.7 °F 27.0 °F 65% 30.41 in 10.0 mi SE 6.9 mph - N/A   Clear
2:53 AM 37.0 °F 31.0 °F 26.1 °F 65% 30.39 in 10.0 mi SE 8.1 mph - N/A   Clear
3:53 AM 37.0 °F 34.5 °F 26.1 °F 65% 30.39 in 10.0 mi SE 3.5 mph - N/A   Clear
4:53 AM 34.0 °F 28.8 °F 27.0 °F 75% 30.37 in 10.0 mi ESE 5.8 mph - N/A   Clear
5:53 AM 34.0 °F 29.8 °F 27.0 °F 75% 30.37 in 10.0 mi ESE 4.6 mph - N/A   Mostly Cloudy
6:53 AM 33.1 °F 28.7 °F 27.0 °F 78% 30.38 in 10.0 mi East 4.6 mph - N/A   Mostly Cloudy
7:53 AM 37.0 °F 31.0 °F 28.9 °F 73% 30.38 in 10.0 mi SE 8.1 mph - N/A   Mostly Cloudy
8:53 AM 42.1 °F 36.1 °F 30.0 °F 62% 30.36 in 10.0 mi SSE 10.4 mph - N/A   Scattered Clouds
9:53 AM 48.0 °F - 30.9 °F 52% 30.35 in 10.0 mi SSE 11.5 mph - N/A   Mostly Cloudy
10:53 AM 52.0 °F - 30.0 °F 43% 30.35 in 10.0 mi SSE 8.1 mph - N/A   Mostly Cloudy
11:53 AM 55.0 °F - 28.0 °F 35% 30.33 in 10.0 mi South 5.8 mph - N/A   Mostly Cloudy
12:53 PM 59.0 °F - 28.9 °F 32% 30.31 in 10.0 mi South 6.9 mph - N/A   Scattered Clouds
1:53 PM 61.0 °F - 28.9 °F 30% 30.28 in 10.0 mi SE 6.9 mph - N/A   Scattered Clouds
2:53 PM 62.1 °F - 28.0 °F 28% 30.26 in 10.0 mi Calm Calm - N/A   Partly Cloudy
3:53 PM 64.0 °F - 26.1 °F 24% 30.23 in 10.0 mi South 8.1 mph - N/A   Partly Cloudy
4:53 PM 64.9 °F - 27.0 °F 24% 30.20 in 10.0 mi SSE 8.1 mph - N/A   Scattered Clouds
5:53 PM 64.0 °F - 27.0 °F 25% 30.17 in 10.0 mi SE 8.1 mph - N/A   Scattered Clouds
6:53 PM 64.0 °F - 27.0 °F 25% 30.16 in 10.0 mi SE 11.5 mph - N/A   Partly Cloudy
7:53 PM 59.0 °F - 28.9 °F 32% 30.15 in 10.0 mi SSE 10.4 mph - N/A   Partly Cloudy
8:53 PM 55.9 °F - 27.0 °F 33% 30.15 in 10.0 mi SE 5.8 mph - N/A   Partly Cloudy
9:53 PM 55.0 °F - 28.0 °F 35% 30.16 in 10.0 mi ESE 4.6 mph - N/A   Partly Cloudy
10:53 PM 52.0 °F - 28.9 °F 41% 30.15 in 10.0 mi ESE 6.9 mph - N/A   Partly Cloudy
11:53 PM 50.0 °F - 30.9 °F 48% 30.14 in 10.0 mi ESE 6.9 mph - N/A   Partly Cloudy